Probability
0 0 0 0 0 0 0 0 0 0 0 0 0 0 0 0 0 0 0 0 0 0 0 0 0 0 0 0 0 0 0 0 0 0 0 0 0 0 0 0 0 0 0 0
0 0 0 0 0 0 0 0 0 0 0 0 0 0 0 0 0 0 0 0 0 0 0 0 0 0 0 0 0 0 0 0 0 0 0 0 0 0 0 0 0 0 0 0
0 0 0 0 0 0 0 0 0 0 0 0 0 0 0 0 0 0 0 0 0 0 0 0 0 0 0 0 0 0 0 0 0 0 0 0 0 0 0 0 0 0 0 0
0 0 0 0 0 0 0 0 0 0 0 0 0 0 0 0 0 0 0 0 0 0 0 0 0 0 0 0 0 0 0 0 0 0 0 0 0 0 0 0 0 0 0 0
0 0 0 0 0 0 0 0 0 0 0 0 0 0 0 0 0 0 0 0 0 0 0 0 0 0 0 0 0 0 0 0 0 0 0 0 0 0 0 0 0 0 0 0
0 0 0 0 0 0 0 0 0 0 0 0 0 0 0 0 0 0 0 0 0 0 0 0 0 0 0 0 0 0 0 0 0 0 0 0 0 0 0 0 0 0 0 0
0 0 0 0 0 0 0 0 0 0 0 0 0 0 0 0 0 0 0 0 0 0 0 0 0 0 0 0 0 0 0 0 0 0 0 0 0 0 0 0 0 0 0 0
0 0 0 0 0 0 0 0 0 0 0 0 0 0 0 0 0 0 0 0 0 0 0 0 0 0 0 0 0 0 0 0 0 0 0 0 0 0 0 0 0 0 0 0
0 0 0 0 0 0 0 0 0 0 0 0 0 0 0 0 0 0 0 0 0 0 0 0 0 0 0 0 0 0 0 0 0 0 0 0 0 0 0 0 0 0 0 0
0 0 0 0 0 0 0 0 0 0 0 0 0 0 0 0 0 0 0 0 0 0 0 0 0 0 0 0 0 0 0 0 0 0 0 0 0 0 0 0 0 0 0 0
0 0 0 0 0 0 0 0 0 0 0 0 0 0 0 0 0 0 0 0 0 0 0 0 0 0 0 0 0 0 0 0 0 0 0 0 0 0 0 0 0 0 0 0
0 0 0 0 0 0 0 0 0 0 0 0 0 0 0 0 0 0 0 0 0 0 0 0 0 0 0 0 0 0 0 0 0 0 0 0 0 0 0 0 0 0 0 0
0 0 0 0 0 0 0 0 0 0 0 0 0 0 0 0 0 0 0 0 0 0 0 0 0 0 0 0 0 0 0 0 0 0 0 0 0 0 0 0 0 0 0 0
0 0 0 0 0 0 0 0 0 0 0 0 0 0 0 0 0 0 0 0 0 0 0 0 0 0 0 0 0 0 0 0 0 0 0 0 0 0 0 0 0 0 0 0
0 0 0 0 0 0 0 0 0 0 0 0 0 0 0 0 0 0 0 0 0 0 0 0 0 0 0 0 0 0 0 0 0 0 0 0 0 0 0 0 0 0 0 0
0 0 0 0 0 0 0 0 0 0 0 0 0 0 0 0 0 0 0 0 0 0 0 0 0 0 0 0 0 0 0 0 0 0 0 0 0 0 0 0 0 0 0 0
0 0 0 0 0 0 0 0 0 0 0 0 0 0 0 0 0 0 0 0 0 0 0 0 0 0 0 0 0 0 0 0 0 0 0 0 0 0 0 0 0 0 0 0
0 0 0 0 0 0 0 0 0 0 0 0 0 0 0 0 0 0 0 0 0 0 0 0 0 0 0 0 0 0 0 0 0 0 0 0 0 0 0 0 0 0 0 0
0 0 0 0 0 0 0 0 0 0 0 0 0 0 0 0 0 0 0 0 0 0 0 0 0 0 0 0 0 0 0 0 0 0 0 0 0 0 0 0 0 0 0 0
0 0 0 0 0 0 0 0 0 0 0 0 0 0 0 0 0 0 0 0 0 0 0 0 0 0 0 0 0 0 0 0 0 0 0 0 0 0 0 0 0 0 0 0
0 0 0 0 0 0 0 0 0 0 0 0 0 0 0 0 0 0 0 0 0 0 0 0 0 0 0 0 0 0 0 0 0 0 0 0 0 0 0 0 0 0 0 0
0 0 0 0 0 0 0 0 0 0 0 0 0 0 0 0 0 0 0 0 0 0 0 0 0 0 0 0 0 0 0 0 0 0 0 0 0 0 0 0 0 0 0 0
0 0 0 0 0 0 0 0 0 0 0 0 0 0 0 0 0 0 0 0 0 0 0 0 0 0 0 0 0 0 0 0 0 0 0 0 0 0 0 0 0 0 0 0
0 0 0 0 0 0 0 0 0 0 0 0 0 0 0 0 0 0 0 0 0 0 0 0 0 0 0 0 0 0 0 0 0 0 0 0 0 0 0 0 0 0 0 0
0 0 0 0 0 0 0 0 0 0 0 0 0 0 0 0 0 0 0 0 0 0 0 0 0 0 0 0 0 0 0 0 0 0 0 0 0 0 0 0 0 0 0 0
0 0 0 0 0 0 0 0 0 0 0 0 0 0 0 0 0 0 0 0 0 0 0 0 0 0 0 0 0 0 0 0 0 0 0 0 0 0 0 0 0 0 0 0
Height
5774 5774 5772 5771 5770 5768 5767 5766 5764 5763 5760 5759 5757 5755 5753 5750 5748 5746 5744 5742 5740 5738 5736 5734 5732 5730 5728 5727 5726 5724 5723 5722 5721 5720 5719 5718 5716 5715 5714 5713 5712 5711 5711 5710
5768 5767 5766 5764 5762 5761 5760 5758 5757 5755 5753 5751 5749 5747 5745 5742 5740 5738 5735 5733 5731 5728 5726 5724 5722 5720 5718 5716 5715 5713 5712 5711 5709 5708 5707 5705 5704 5703 5701 5700 5699 5699 5698 5698
5761 5761 5758 5757 5755 5754 5752 5751 5749 5747 5745 5742 5740 5739 5737 5734 5731 5729 5726 5724 5721 5718 5716 5714 5711 5709 5707 5705 5704 5702 5700 5698 5697 5695 5694 5693 5691 5690 5689 5687 5686 5685 5685 5685
5753 5752 5751 5749 5748 5746 5744 5742 5740 5738 5735 5733 5732 5729 5729 5725 5722 5719 5717 5714 5711 5708 5705 5703 5701 5698 5696 5694 5692 5690 5688 5686 5684 5682 5680 5679 5678 5676 5675 5674 5673 5672 5671 5671
5746 5744 5743 5741 5740 5737 5735 5733 5731 5729 5726 5724 5722 5718 5718 5715 5712 5710 5707 5704 5701 5698 5695 5692 5690 5687 5685 5682 5680 5678 5675 5673 5671 5669 5667 5665 5663 5662 5661 5660 5659 5659 5658 5657
5738 5736 5734 5733 5731 5729 5726 5724 5721 5719 5716 5714 5713 5708 5707 5705 5703 5700 5696 5693 5690 5687 5684 5681 5679 5676 5673 5670 5668 5665 5663 5660 5658 5655 5653 5651 5649 5647 5646 5646 5645 5644 5644 5644
5730 5728 5726 5724 5722 5720 5717 5715 5711 5708 5705 5704 5702 5697 5697 5695 5692 5689 5685 5682 5679 5676 5673 5670 5667 5664 5661 5658 5655 5652 5649 5646 5644 5642 5639 5637 5635 5634 5632 5631 5630 5630 5629 5629
5720 5719 5717 5715 5712 5710 5707 5705 5702 5698 5695 5693 5690 5687 5687 5684 5680 5677 5674 5671 5667 5664 5661 5658 5655 5652 5648 5645 5642 5639 5636 5633 5630 5627 5625 5623 5621 5619 5617 5616 5615 5615 5615 5615
5710 5709 5708 5705 5702 5700 5697 5694 5692 5688 5683 5680 5679 5677 5675 5673 5669 5666 5663 5659 5655 5652 5649 5646 5643 5640 5636 5632 5629 5626 5623 5620 5616 5613 5611 5609 5606 5605 5603 5601 5600 5600 5599 5600
5700 5699 5698 5695 5693 5690 5687 5684 5681 5676 5672 5668 5667 5666 5664 5661 5658 5655 5651 5647 5644 5641 5638 5634 5631 5627 5624 5620 5616 5613 5609 5606 5603 5600 5597 5595 5592 5590 5589 5587 5586 5586 5585 5585
5690 5689 5687 5685 5682 5679 5677 5674 5669 5665 5662 5658 5655 5657 5653 5649 5646 5642 5639 5635 5632 5629 5626 5622 5618 5615 5611 5608 5604 5600 5596 5593 5590 5587 5584 5581 5579 5576 5575 5573 5572 5571 5571 5570
5679 5677 5675 5674 5671 5668 5665 5662 5659 5656 5652 5648 5644 5646 5641 5637 5633 5630 5627 5624 5620 5617 5613 5610 5606 5602 5598 5595 5591 5587 5584 5580 5576 5573 5570 5567 5565 5563 5561 5559 5558 5557 5556 5556
5669 5667 5665 5663 5662 5658 5654 5651 5648 5644 5641 5637 5634 5636 5629 5625 5621 5618 5615 5612 5608 5605 5601 5597 5594 5590 5586 5582 5578 5574 5570 5567 5563 5560 5557 5554 5551 5549 5547 5545 5544 5542 5542 5542
5658 5656 5655 5652 5649 5645 5643 5641 5637 5632 5629 5626 5624 5622 5619 5614 5610 5607 5603 5600 5596 5593 5589 5585 5581 5577 5573 5569 5565 5561 5557 5554 5550 5546 5543 5540 5537 5535 5533 5531 5529 5528 5527 5527
5647 5645 5643 5641 5637 5634 5632 5630 5626 5622 5618 5615 5613 5609 5606 5601 5598 5595 5591 5588 5584 5580 5577 5573 5569 5565 5561 5556 5552 5548 5544 5540 5536 5533 5530 5526 5523 5520 5518 5517 5515 5514 5513 5513
5636 5634 5632 5630 5627 5623 5621 5619 5615 5611 5607 5604 5600 5598 5594 5590 5586 5583 5579 5576 5572 5568 5564 5561 5557 5552 5548 5544 5540 5535 5531 5527 5523 5520 5516 5512 5509 5506 5504 5503 5501 5500 5499 5499
5625 5623 5621 5619 5616 5612 5610 5609 5604 5600 5597 5593 5589 5588 5582 5579 5575 5571 5568 5564 5560 5556 5552 5548 5544 5540 5536 5532 5527 5523 5519 5514 5510 5506 5502 5499 5496 5493 5490 5489 5488 5487 5486 5486
5614 5612 5608 5606 5605 5602 5603 5597 5593 5589 5586 5582 5578 5574 5570 5567 5563 5560 5556 5552 5548 5544 5540 5536 5532 5528 5524 5520 5515 5510 5506 5501 5497 5493 5489 5485 5483 5480 5478 5476 5475 5474 5473 5473
5604 5601 5598 5595 5592 5590 5590 5586 5581 5577 5575 5570 5566 5563 5559 5555 5552 5548 5544 5539 5536 5532 5528 5525 5520 5516 5512 5508 5503 5498 5493 5489 5484 5480 5476 5473 5470 5468 5466 5464 5463 5462 5462 5461
5594 5591 5588 5584 5580 5579 5579 5574 5569 5566 5563 5560 5555 5551 5547 5543 5540 5538 5532 5528 5524 5520 5517 5513 5509 5504 5500 5495 5490 5486 5481 5477 5472 5468 5464 5460 5458 5456 5454 5452 5451 5450 5450 5450
5583 5580 5577 5574 5569 5568 5566 5562 5557 5556 5553 5548 5544 5540 5536 5532 5529 5525 5521 5517 5513 5509 5505 5501 5497 5492 5488 5483 5479 5474 5470 5465 5461 5457 5453 5449 5446 5444 5443 5441 5440 5439 5439 5439
5573 5569 5566 5563 5559 5560 5554 5550 5547 5544 5539 5536 5532 5528 5525 5521 5517 5513 5509 5505 5501 5497 5493 5489 5485 5481 5476 5472 5467 5463 5459 5454 5450 5446 5442 5439 5436 5433 5432 5430 5429 5428 5428 5428
5562 5560 5555 5553 5551 5546 5542 5538 5535 5531 5528 5524 5521 5517 5514 5510 5506 5502 5498 5494 5490 5486 5482 5478 5473 5469 5465 5461 5456 5452 5448 5443 5439 5435 5432 5428 5425 5423 5421 5420 5419 5418 5418 5418
5551 5548 5544 5541 5539 5535 5531 5527 5524 5520 5516 5513 5510 5506 5503 5499 5495 5491 5487 5483 5479 5475 5471 5467 5463 5458 5454 5450 5446 5442 5438 5433 5429 5426 5422 5418 5416 5413 5411 5410 5409 5408 5407 5407
5541 5537 5534 5531 5528 5524 5521 5516 5513 5509 5505 5502 5499 5495 5491 5488 5485 5481 5477 5473 5469 5464 5460 5456 5452 5448 5444 5440 5436 5432 5428 5424 5420 5416 5413 5410 5407 5404 5402 5400 5398 5398 5397 5396
5530 5527 5524 5521 5517 5513 5510 5506 5502 5498 5495 5491 5488 5484 5481 5477 5474 5470 5466 5462 5458 5454 5450 5446 5442 5438 5434 5430 5426 5422 5418 5414 5411 5407 5404 5401 5398 5395 5393 5391 5389 5387 5387 5387
Wind_Speed
23 23 24 24 24 25 25 26 26 27 28 28 28 29 29 30 31 31 32 32 33 33 34 34 35 36 37 38 38 39 40 40 40 41 42 43 43 44 44 44 45 44 44 44
25 25 25 26 26 26 27 27 28 29 30 31 30 31 31 32 32 32 33 33 34 35 35 36 36 37 37 38 39 40 41 42 42 43 43 44 45 44 44 45 45 46 46 46
27 26 26 27 28 28 29 30 30 32 32 33 33 33 33 33 34 34 34 35 36 36 36 37 37 38 39 40 41 42 42 43 44 44 45 45 46 46 45 45 46 47 47 47
28 27 28 29 29 30 31 31 32 33 34 34 35 36 33 34 35 35 36 36 37 37 38 38 39 40 41 42 43 43 44 44 45 45 46 47 47 47 47 46 46 47 47 48
28 28 29 30 30 31 32 33 34 34 35 36 36 38 37 36 36 36 37 37 37 38 38 39 40 41 42 43 44 45 45 46 46 46 47 47 48 48 48 48 48 48 48 48
29 29 30 30 31 32 33 34 35 36 37 38 37 39 39 37 36 37 37 38 38 39 39 40 41 42 43 44 45 46 46 47 48 48 48 48 47 48 49 49 49 49 49 49
30 30 30 31 32 33 34 35 37 38 39 40 39 40 39 37 37 37 38 39 40 40 41 41 42 43 44 45 46 46 47 48 48 49 49 48 48 48 48 49 50 50 49 49
31 31 31 32 33 34 35 36 37 39 41 41 40 40 39 38 38 39 39 40 41 41 41 42 43 44 45 46 47 47 48 49 49 50 50 49 49 49 48 48 49 50 51 50
33 33 33 34 35 35 36 37 38 40 42 43 42 41 40 39 39 40 41 41 42 42 43 44 45 46 46 47 47 47 47 48 49 49 49 49 49 49 49 49 49 50 50 50
34 35 35 35 36 36 37 38 39 40 41 43 43 42 42 41 42 42 42 42 43 44 45 45 46 46 46 47 47 47 47 47 47 48 48 49 49 49 49 48 49 49 49 50
36 36 36 37 37 37 38 38 39 40 41 42 43 43 42 43 43 42 42 43 44 45 45 46 46 46 46 47 48 48 47 47 46 46 47 47 48 47 47 47 48 48 48 48
37 38 38 38 38 39 39 39 39 39 41 42 44 43 42 43 43 43 43 43 44 45 46 46 46 46 47 47 47 47 47 47 47 46 46 46 47 47 47 48 48 48 47 47
37 38 38 39 39 39 40 39 39 40 41 42 43 43 43 43 44 44 43 43 43 44 45 45 45 46 46 46 46 46 47 47 47 47 46 45 46 46 47 47 47 47 47 48
38 39 39 39 39 40 39 38 39 40 41 42 42 42 42 43 43 43 43 43 43 44 44 44 45 45 46 46 46 46 47 47 47 47 46 46 46 47 47 47 47 47 47 47
39 39 39 39 39 40 39 38 38 40 41 42 41 42 41 42 42 42 42 43 44 44 44 44 45 45 46 46 46 46 46 46 47 47 47 47 47 47 47 47 46 46 45 46
38 39 39 39 39 40 39 39 40 40 40 41 41 41 41 41 41 42 42 43 44 44 44 44 44 44 45 45 45 45 46 46 46 46 46 46 46 46 45 45 44 44 43 43
38 38 39 39 39 40 39 38 39 40 40 40 41 40 41 41 41 42 43 43 44 44 43 43 43 43 44 44 44 44 45 45 45 45 45 44 44 44 44 44 43 42 42 42
37 38 39 39 39 41 39 39 40 41 40 40 41 41 41 41 42 43 44 45 44 44 43 43 43 43 43 43 44 44 44 44 44 44 43 43 42 41 41 41 41 41 41 41
36 37 39 40 41 41 40 40 41 41 40 40 41 41 41 42 42 42 43 43 43 42 42 42 43 43 43 44 43 43 43 43 42 42 42 42 41 40 39 39 38 38 38 38
36 37 39 40 42 42 41 41 42 42 41 41 41 41 41 41 41 40 41 42 42 41 42 42 43 43 43 43 43 42 42 42 42 41 40 40 39 38 38 37 36 36 36 36
37 38 39 40 42 42 41 42 42 41 42 41 40 40 40 40 40 40 40 40 41 41 42 42 42 42 42 42 42 42 41 41 40 39 38 37 36 36 36 36 36 35 35 35
38 39 40 41 41 41 41 41 41 41 41 40 40 40 39 39 39 39 39 39 40 40 41 41 41 41 41 41 41 40 40 39 38 38 37 36 35 34 34 34 34 34 34 34
37 38 40 41 41 41 41 41 41 41 41 39 39 39 38 38 38 38 39 39 40 40 40 40 39 40 39 39 39 38 38 37 36 36 35 34 33 33 32 32 32 32 33 33
37 38 39 39 39 39 40 40 40 39 39 38 38 38 38 38 38 38 39 39 39 39 39 38 38 38 37 37 37 36 36 35 35 34 34 33 32 32 31 31 31 31 32 32
37 38 38 38 38 38 38 38 38 38 38 38 38 38 38 38 38 39 39 39 39 38 38 38 37 37 36 36 35 35 34 34 33 33 32 32 31 31 31 31 31 31 31 32
35 36 37 37 37 37 37 37 37 37 37 38 38 38 38 38 38 38 38 38 38 37 37 36 35 35 35 34 34 33 33 33 33 32 31 31 30 29 29 29 30 30 30 30
Wind_Direction
277 277 278 279 278 278 279 280 282 284 285 285 287 288 288 288 288 287 286 285 284 283 282 281 278 277 276 275 274 274 274 274 275 274 274 274 274 274 273 273 270 269 269 268
277 277 278 278 279 280 280 281 283 285 287 287 287 289 289 289 288 288 287 286 285 284 283 282 279 277 276 276 275 275 275 275 275 275 275 275 275 274 273 273 271 269 268 267
278 279 279 279 280 280 281 283 285 286 287 287 288 289 290 289 288 288 287 286 285 284 283 282 280 278 277 277 277 276 276 276 276 276 276 275 275 274 274 272 271 270 269 266
278 279 280 281 281 282 283 284 286 287 287 288 290 290 291 290 289 288 287 286 285 284 283 282 281 280 279 278 278 278 277 278 278 277 276 275 274 273 272 272 270 269 269 267
280 281 281 282 282 283 284 285 286 287 287 288 290 291 292 291 290 288 286 285 284 283 283 282 282 282 280 280 279 280 279 279 279 279 278 277 275 273 272 272 270 269 268 267
280 281 281 282 283 284 285 286 287 288 288 289 291 291 292 292 290 288 287 286 284 283 283 283 283 282 282 281 280 280 280 279 279 279 278 278 277 275 272 271 270 269 268 265
279 281 282 283 284 285 286 287 289 289 289 290 291 290 291 292 290 289 288 287 285 284 283 283 284 284 284 284 283 282 282 281 280 279 279 278 277 276 275 273 270 269 267 264
280 281 283 284 285 286 287 288 289 290 290 291 291 291 293 292 291 290 289 287 286 285 285 286 286 286 287 287 286 285 284 283 281 280 279 279 278 277 275 274 271 269 267 264
282 283 284 285 285 286 287 287 288 289 289 289 290 291 291 291 291 291 290 289 288 287 287 288 288 288 289 289 288 287 287 285 283 281 280 279 278 277 276 274 272 271 268 265
283 283 285 286 286 286 287 288 289 288 289 289 290 291 292 292 291 291 290 289 288 288 288 288 288 288 288 289 289 288 287 287 284 283 281 279 278 276 275 275 273 271 269 265
283 284 285 286 287 287 287 288 288 287 287 288 290 292 292 292 291 290 289 289 289 289 289 289 289 288 288 288 289 289 287 287 286 284 282 280 278 276 275 275 274 272 269 267
283 284 285 286 287 288 288 288 287 286 287 288 289 291 291 291 291 290 289 289 289 289 289 289 289 290 290 289 289 288 287 286 286 285 283 281 279 277 275 275 274 273 269 267
283 284 286 287 288 289 289 289 288 287 286 287 289 291 291 290 290 289 289 289 289 290 289 290 290 290 290 290 289 289 288 287 286 285 283 281 279 277 276 275 274 272 270 267
283 284 286 287 289 289 289 289 288 288 289 289 290 290 289 289 288 288 289 289 290 290 290 290 291 291 291 291 290 289 289 288 287 285 284 282 280 278 277 275 274 272 270 268
282 284 285 286 288 288 289 289 288 288 289 290 291 290 290 289 288 288 289 290 290 290 291 292 293 293 292 292 292 291 290 289 288 286 284 283 282 280 278 276 274 273 271 268
282 284 285 286 287 288 289 289 289 289 290 291 291 290 290 289 289 289 290 291 291 291 292 293 294 294 294 294 293 292 291 290 289 287 285 284 282 280 277 276 274 273 271 269
282 284 285 287 288 288 289 291 292 291 291 291 291 291 290 289 289 289 290 291 292 292 292 293 294 295 295 295 295 294 292 291 290 289 286 285 283 281 278 275 274 272 270 268
283 285 287 288 289 289 293 292 292 293 293 293 292 292 292 291 290 291 291 291 292 292 292 293 294 294 294 295 295 295 293 292 291 289 287 285 284 281 279 277 274 271 269 268
284 285 287 288 289 291 291 293 294 294 294 294 294 293 293 292 292 291 292 292 293 293 292 293 294 294 295 295 296 296 295 293 292 291 288 286 284 281 279 278 274 271 269 268
285 286 287 289 290 291 293 294 294 294 294 295 295 294 294 294 293 293 292 292 292 293 293 294 294 295 296 296 296 296 295 295 294 293 290 287 284 281 279 277 274 272 269 267
285 286 287 289 290 291 293 294 295 295 296 295 295 295 295 294 294 294 293 293 293 293 294 294 295 296 296 296 297 296 295 295 295 294 292 289 286 282 279 276 274 272 269 267
286 286 287 289 290 292 293 293 294 295 294 294 294 294 295 295 294 294 295 295 295 295 295 295 295 296 296 297 297 297 296 296 295 294 292 289 286 283 281 277 273 271 268 266
286 288 289 290 292 293 293 294 294 294 294 294 293 294 295 295 295 295 295 296 296 297 296 296 296 297 297 298 298 298 297 297 295 294 292 289 285 283 281 278 274 271 268 266
288 288 289 290 292 292 293 293 294 294 293 293 294 294 294 295 296 296 297 297 297 298 297 297 297 298 298 298 299 299 298 298 297 295 294 290 286 283 280 279 275 272 269 266
288 289 290 291 292 292 292 292 292 292 293 293 294 294 295 295 296 296 297 298 298 298 298 298 298 298 299 299 300 299 299 298 298 296 295 292 289 285 281 278 276 273 269 267
288 289 291 292 293 293 293 292 292 292 292 293 293 294 295 296 297 297 297 297 298 298 299 299 299 299 299 300 300 300 299 298 298 296 295 293 291 287 283 279 276 273 270 267